Flag for United Kingdom Weather past 2 weeks in Inverness, Scotland, United Kingdom

Now
55 °F

Passing clouds.


Feels Like: 55 °F
Forecast: 53 / 61 °F
Wind: 2 mph from North

Location: Inverness / Dalcross

Current Time: Aug 28, 2015 at 8:50:22 PM

Latest Report: Aug 28, 2015 at 8:20 PM


Visibility: N/A

Pressure: 29.71 "Hg

Humidity: 77%

Dew point: 48 °F

Location of InvernessLocation

Historic Weather in Inverness — Graph

°F

Inverness temperature yesterday

Maximum temperature yesterday: 63 °F (at 12:20 PM)
Minimum temperature yesterday: 43 °F (at 1:50 AM)
Average temperature yesterday: 53 °F

Past Weeks' High & Low Weather Summary

 TemperatureHumidityPressure
High75 °F (Aug 23, 12:20 PM)100% (Aug 14, 3:50 AM)30.15 "Hg (Aug 14, 3:50 AM)
Low37 °F (Aug 17, 4:50 AM)41% (Aug 23, 2:20 PM)29.27 "Hg (Aug 26, 12:20 PM)
Average57 °F83%29.75 "Hg
* Reported Aug 13 7:20 PM — Aug 28 7:50 PM, Inverness, Weather by CustomWeather, © 2015

Note: Actual official high and low records may vary slightly from our data, if they occured in-between our weather recording intervals... More about our weather records

Advertising

Inverness weather history for previous 24 hours

 ConditionsComfort  
Time TempWeatherWind HumidityBarometerVisibility
7:50 PM
Fri, Aug 28
55 °FScattered clouds.3 mph82%29.71 "HgN/A
7:20 PM59 °FPassing clouds.9 mph72%29.71 "HgN/A
6:50 PM61 °FPassing clouds.6 mph68%29.71 "HgN/A
6:20 PM61 °FPassing clouds.15 mph63%29.71 "HgN/A
5:50 PM63 °FPassing clouds.15 mph59%29.71 "HgN/A
5:20 PM63 °FPassing clouds.15 mph59%29.71 "HgN/A
4:50 PM63 °FPassing clouds.16 mph59%29.68 "HgN/A
4:20 PM64 °FPassing clouds.18 mph56%29.68 "HgN/A
3:50 PM64 °FPassing clouds.16 mph56%29.68 "HgN/A
3:20 PM63 °FPassing clouds.16 mph59%29.68 "HgN/A
2:50 PM64 °FPassing clouds.16 mph60%29.68 "HgN/A
2:20 PM64 °FPassing clouds.13 mph60%29.68 "HgN/A
1:50 PM64 °FPassing clouds.15 mph60%29.68 "HgN/A
1:20 PM64 °FPassing clouds.14 mph60%29.68 "HgN/A
12:50 PM63 °FPassing clouds.14 mph59%29.68 "HgN/A
12:20 PM64 °FPassing clouds.18 mph60%29.68 "HgN/A
11:50 AM63 °FPassing clouds.18 mph68%29.68 "HgN/A
11:20 AM61 °FPassing clouds.18 mph68%29.65 "HgN/A
10:50 AM64 °FPassing clouds.15 mph60%29.65 "HgN/A
10:20 AM63 °FPassing clouds.15 mph68%29.65 "HgN/A
9:50 AM59 °FPassing clouds.9 mph72%29.65 "HgN/A
9:20 AM57 °FPassing clouds.10 mph82%29.65 "HgN/A
8:50 AM59 °FPassing clouds.9 mph77%29.65 "HgN/A
8:20 AM57 °FPassing clouds.3 mph82%29.62 "HgN/A
7:50 AM54 °FPassing clouds.1 mph88%29.62 "HgN/A
7:20 AM50 °FPassing clouds.No wind94%29.62 "HgN/A
6:50 AM48 °FPassing clouds.No wind94%29.62 "HgN/A
6:20 AM48 °FPassing clouds.No wind94%29.59 "HgN/A
5:50 AM48 °FPassing clouds.2 mph94%29.59 "HgN/A
4:50 AM46 °FClear.No wind87%29.59 "Hg10 mi
3:50 AM50 °FClear.3 mph88%29.59 "Hg10 mi
3:20 AM50 °FClear.7 mph88%29.59 "Hg10 mi
2:50 AM52 °FClear.10 mph82%29.56 "Hg10 mi
2:20 AM54 °FCool.8 mph82%29.56 "HgN/A
1:50 AM54 °FCool.7 mph82%29.56 "HgN/A
1:20 AM54 °FCool.8 mph82%29.56 "HgN/A
12:50 AM50 °FCool.3 mph88%29.56 "HgN/A
12:20 AM48 °FCool.No wind94%29.56 "HgN/A
11:50 PM
Thu, Aug 27
48 °FCool.3 mph87%29.53 "HgN/A
11:20 PM50 °FCool.3 mph88%29.53 "HgN/A
10:50 PM52 °FCool.7 mph82%29.53 "HgN/A
10:20 PM52 °FPassing clouds.8 mph88%29.53 "HgN/A
9:50 PM54 °FPassing clouds.10 mph82%29.53 "HgN/A
9:20 PM50 °FPassing clouds.No wind88%29.50 "HgN/A
8:50 PM52 °FPassing clouds.6 mph82%29.50 "HgN/A
8:20 PM54 °FPassing clouds.6 mph82%29.50 "HgN/A
Weather by CustomWeather, © 2015

See weather overviewHow to use our weather pages